#timestamp,LO_Frequency,Hit,StdDev 
1683104415.5,286046999.8,N
1683104435.3,286047002.1,N
1683104455.2,286046999.8,N
1683104475.0,286046999.7,N
1683104475.9,286046999.7,N
1683104495.8,286047001.5,N
1683104515.6,286047002.0,N
1683104535.4,286047002.7,N
1683104555.3,286046999.7,N
1683104575.1,286046999.9,N
1683104595.8,286047000.0,N
1683104615.7,286047000.8,N
1683104635.5,286047000.7,N
1683104655.4,286047000.1,N
1683104675.2,286047002.4,N
1683104695.0,286047001.0,N
1683104695.9,286047001.0,N
1683104715.8,286047002.1,N
1683104735.6,286047002.2,N
1683104755.5,286047002.6,N
1683104775.3,286047002.1,N
1683104795.1,286047002.2,N
1683104815.9,286047004.1,Y
1683104835.7,286047002.0,P
1683104855.6,286047002.1,P
1683104875.4,286047002.6,P
1683104895.2,286047000.1,N
1683104915.1,286047001.1,N
1683104916.0,286047001.1,N
1683104935.8,286046998.2,N
1683104955.7,286046998.4,N
1683104975.5,286047001.2,N
1683104995.3,286047000.9,N
1683105015.2,286047000.8,N
1683105035.0,286047002.7,N
1683105035.9,286047002.7,N
1683105055.8,286047000.1,N
1683105075.6,286046999.9,N
1683105095.4,286047002.4,N
1683105115.3,286047002.8,N
1683105135.1,286046999.7,N
1683105155.8,286046999.8,N
1683105175.7,286047000.1,N
1683105195.5,286046998.1,N
1683105215.4,286047001.0,N
1683105235.2,286046998.5,N
1683105285.1,286047000.8,E
1683105295.9,286047000.4,N
1683105315.7,286047000.9,P
1683105335.6,286047000.7,N
1683105355.4,286047000.6,N
1683105375.2,286047000.5,N
1683105395.1,286047001.0,Y
1683105396.0,286047001.0,P
1683105415.8,286046998.5,P
1683105435.7,286046998.2,N
1683105455.5,286046998.3,N
1683105475.4,286046999.0,N
1683105495.2,286046998.9,N
1683105515.0,286046998.2,N
1683105515.9,286046998.2,N
1683105535.8,286046998.3,N
1683105555.6,286046998.7,N
1683105575.5,286047000.7,N
1683105595.3,286046998.3,N
1683105615.1,286046998.3,N
1683105635.9,286046998.6,N
1683105655.7,286046998.5,N
1683105675.6,286046999.0,N
1683105695.4,286046998.9,N
1683105715.2,286046998.1,N
1683105735.1,286046999.4,N
1683105736.0,286046999.4,N
1683105755.8,286046998.7,N
1683105775.7,286046998.8,N
1683105795.5,286046999.4,N
1683105815.3,286046999.1,N
1683105835.2,286046998.4,N
1683105855.0,286046998.3,N
1683105855.9,286046998.3,N
1683105875.8,286046999.5,N
1683105895.6,286046999.3,N
1683105915.4,286046998.5,N
1683105935.3,286046997.3,Y
1683105955.1,286046997.3,P
1683105975.9,286046999.3,N
1683105995.7,286046998.3,N
1683106015.5,286046998.5,N
1683106035.4,286046999.0,N
1683106055.2,286047000.4,N
1683106075.0,286046999.8,N
1683106075.9,286046999.8,N
1683106095.8,286046999.7,N
1683106115.6,286046999.8,N
1683106135.5,286047000.1,N
1683106155.3,286047000.0,N
1683106175.1,286047000.5,N
1683106195.9,286047000.9,N
1683106215.7,286047000.5,N
1683106235.5,286047000.2,N
1683106255.4,286047000.0,N
1683106275.2,286047000.0,N
1683106295.1,286047000.5,N
1683106296.0,286047000.5,N
1683106315.8,286046999.9,N
1683106335.6,286047001.0,N
1683106355.5,286047000.6,N
1683106375.3,286047000.3,N
1683106395.1,286047000.2,N
1683106415.9,286047002.7,Y
1683106435.7,286047002.3,P
1683106455.6,286047002.7,N
1683106475.4,286047000.1,N
1683106495.2,286047002.7,N
1683106515.1,286047002.0,N
1683106516.0,286047002.0,N
1683106535.8,286046999.8,N
1683106555.3,286047002.7,N
1683106575.1,286047002.0,N
1683106595.9,286047002.3,N
1683106615.7,286047002.3,N
1683106635.6,286047002.6,N
1683106655.4,286047000.9,N
1683106675.2,286047000.5,N
1683106695.1,286047000.8,N
1683106696.0,286047000.8,N
1683106715.8,286047000.0,N
1683106735.6,286047000.0,N
1683106755.5,286046999.9,N
1683106775.3,286046999.7,N
1683106795.2,286047000.1,N
1683106815.9,286047002.8,N
1683106835.7,286046999.7,N
1683106855.6,286047002.4,N
1683106875.4,286047000.2,N
1683106895.2,286047000.6,N
1683106915.1,286047000.1,N
1683106916.0,286047000.1,N
1683106935.8,286047002.5,N
1683106955.7,286047001.9,N
1683106975.5,286047002.1,N
1683106995.3,286047002.6,N
1683107015.2,286046999.8,N
1683107035.0,286047002.7,N
1683107035.9,286047002.7,N
1683107055.7,286047000.3,N
1683107075.6,286047000.1,N
1683107095.4,286047002.5,N
1683107115.3,286046999.8,N
1683107135.1,286047000.0,N
1683107136.0,286047000.0,N
1683107155.8,286047002.8,N
1683107175.7,286047000.6,N
1683107195.5,286047000.4,N
1683107215.3,286047000.9,N
1683107235.2,286047000.0,N
1683107255.0,286047000.9,N
1683107255.9,286047000.9,N
1683107275.8,286047002.4,N
1683107295.6,286046999.8,N
1683107315.4,286047001.9,N
1683107335.3,286047004.4,Y
1683107355.1,286047001.5,P
1683107375.8,286047001.5,P
1683107395.7,286047002.8,P
1683107415.5,286047001.1,N
1683107435.4,286046998.2,N
1683107455.2,286047000.7,N
1683107475.0,286047000.8,N
1683107475.9,286047000.8,N
1683107495.8,286047000.7,N
1683107515.6,286047000.3,N
1683107535.4,286047000.3,N
1683107555.3,286046998.5,N
1683107575.1,286047001.0,N
1683107595.9,286047001.0,N
1683107615.7,286047000.8,N
1683107635.5,286046998.8,N
1683107655.4,286046998.9,N
1683107675.2,286047000.7,N
1683107695.0,286046998.1,N
1683107695.9,286046998.1,N
1683107715.8,286046998.2,N
1683107735.6,286046998.7,N
1683107755.5,286047001.1,N
1683107775.3,286046999.1,N
1683107795.1,286046998.7,N
1683107815.9,286046999.6,N
1683107835.7,286046999.5,N
1683107855.5,286046996.7,N
1683107875.4,286046996.9,N
1683107895.2,286046996.5,N
1683107915.0,286046996.7,N
1683107916.0,286046996.7,N
1683107935.8,286046996.6,N
1683107955.6,286046997.1,N
1683107975.5,286046998.9,N
1683107995.3,286046999.2,N
